Location: *
(37.9500°N, 27.3666°E)
Time: 06:18:55
(UTC+00:00)

X-37B - Pass Details

Date: 06 December 2022
Orbit: 277 x 277 km, 45.0° (Epoch: 01 November)

Event Time Altitude Azimuth Distance (km) Brightness Sun altitude
Rises 15:57:03 0° 223° (SW) 1,901 5.3 -12.8°
Reaches altitude 10° 15:59:03 10° 212° (SSW) 1,092 3.6 -13.2°
Maximum altitude 16:01:16 31° 146° (SE) 508 1.0 -13.6°
Enters shadow 16:01:46 28° 119° (ESE) 553 1.0 -13.7°
